Time,TemperatureF,DewpointF,PressureIn,WindDirection,WindDirectionDegrees,WindSpeedMPH,WindSpeedGustMPH,Humidity,HourlyPrecipIn,Conditions,Clouds,dailyrainin,SolarRadiationWatts/m^2,SoftwareType,DateUTC
2013-06-16 00:00:00,54.5,50.7,29.94,NW,307,0.0,1.0,87,0.00,,,0.00,0.0,WUHU216DAVISWMX,2013-06-16 04:00:00,
2013-06-16 00:01:00,54.4,50.9,29.94,NW,307,0.0,1.0,88,0.00,,,0.00,0.0,WUHU216DAVISWMX,2013-06-16 04:01:00,
2013-06-16 00:06:00,54.3,51.7,29.94,NW,307,0.0,0.0,91,0.00,,,0.00,0.0,WUHU216DAVISWMX,2013-06-16 04:06:00,
2013-06-16 00:11:00,54.2,51.6,29.94,NW,307,0.0,0.0,91,0.00,,,0.00,0.0,WUHU216DAVISWMX,2013-06-16 04:11:00,
2013-06-16 00:16:00,54.1,51.8,29.94,NW,307,0.0,0.0,92,0.00,,,0.00,0.0,WUHU216DAVISWMX,2013-06-16 04:16:00,
2013-06-16 00:21:00,54.0,51.1,29.94,NW,307,0.0,0.0,90,0.00,,,0.00,0.0,WUHU216DAVISWMX,2013-06-16 04:21:00,
2013-06-16 00:26:00,53.8,52.1,29.94,NW,307,0.0,0.0,94,0.00,,,0.00,0.0,WUHU216DAVISWMX,2013-06-16 04:26:00,
2013-06-16 00:31:00,53.6,51.9,29.94,NW,307,0.0,0.0,94,0.00,,,0.00,0.0,WUHU216DAVISWMX,2013-06-16 04:31:00,
2013-06-16 00:36:00,53.5,51.8,29.94,NW,307,0.0,0.0,94,0.00,,,0.00,0.0,WUHU216DAVISWMX,2013-06-16 04:36:00,
2013-06-16 00:41:00,53.5,51.8,29.94,NW,307,0.0,0.0,94,0.00,,,0.00,0.0,WUHU216DAVISWMX,2013-06-16 04:41:00,
2013-06-16 00:46:00,53.4,51.7,29.95,NW,307,0.0,0.0,94,0.00,,,0.00,0.0,WUHU216DAVISWMX,2013-06-16 04:46:00,
2013-06-16 00:51:00,53.3,51.9,29.94,NW,307,0.0,0.0,95,0.00,,,0.00,0.0,WUHU216DAVISWMX,2013-06-16 04:51:00,
2013-06-16 00:56:00,53.3,51.9,29.94,NW,307,0.0,0.0,95,0.00,,,0.00,0.0,WUHU216DAVISWMX,2013-06-16 04:56:00,
2013-06-16 01:01:00,53.2,51.8,29.94,NW,307,0.0,0.0,95,0.00,,,0.00,0.0,WUHU216DAVISWMX,2013-06-16 05:01:00,
2013-06-16 01:06:00,53.0,51.6,29.94,NW,307,0.0,0.0,95,0.00,,,0.00,0.0,WUHU216DAVISWMX,2013-06-16 05:06:00,
2013-06-16 01:11:00,52.9,51.8,29.94,NW,307,0.0,0.0,96,0.00,,,0.00,0.0,WUHU216DAVISWMX,2013-06-16 05:11:00,
2013-06-16 01:16:00,52.7,51.3,29.94,NW,307,0.0,0.0,95,0.00,,,0.00,0.0,WUHU216DAVISWMX,2013-06-16 05:16:00,
2013-06-16 01:21:00,52.6,50.6,29.94,NW,307,0.0,0.0,93,0.00,,,0.00,0.0,WUHU216DAVISWMX,2013-06-16 05:21:00,
2013-06-16 01:26:00,52.5,50.5,29.94,NW,307,0.0,0.0,93,0.00,,,0.00,0.0,WUHU216DAVISWMX,2013-06-16 05:26:00,
2013-06-16 01:31:00,52.5,50.5,29.94,NW,307,0.0,0.0,93,0.00,,,0.00,0.0,WUHU216DAVISWMX,2013-06-16 05:31:00,
2013-06-16 01:36:00,52.4,51.0,29.94,NW,307,0.0,0.0,95,0.00,,,0.00,0.0,WUHU216DAVISWMX,2013-06-16 05:36:00,
2013-06-16 01:41:00,52.3,51.4,29.94,NW,307,0.0,0.0,97,0.00,,,0.00,0.0,WUHU216DAVISWMX,2013-06-16 05:41:00,
2013-06-16 01:46:00,52.2,51.3,29.94,NW,307,0.0,0.0,97,0.00,,,0.00,0.0,WUHU216DAVISWMX,2013-06-16 05:46:00,
2013-06-16 01:51:00,52.1,51.2,29.94,NW,307,0.0,0.0,97,0.00,,,0.00,0.0,WUHU216DAVISWMX,2013-06-16 05:51:00,
2013-06-16 01:56:00,51.9,51.0,29.94,NW,307,0.0,0.0,97,0.00,,,0.00,0.0,WUHU216DAVISWMX,2013-06-16 05:56:00,
2013-06-16 02:01:00,51.8,50.9,29.94,NW,307,0.0,0.0,97,0.00,,,0.00,0.0,WUHU216DAVISWMX,2013-06-16 06:01:00,
2013-06-16 02:06:00,51.7,50.6,29.94,NW,307,0.0,0.0,96,0.00,,,0.00,0.0,WUHU216DAVISWMX,2013-06-16 06:06:00,
2013-06-16 02:11:00,51.6,50.2,29.94,NW,307,0.0,0.0,95,0.00,,,0.00,0.0,WUHU216DAVISWMX,2013-06-16 06:11:00,
2013-06-16 02:16:00,51.5,49.8,29.94,NW,307,0.0,0.0,94,0.00,,,0.00,0.0,WUHU216DAVISWMX,2013-06-16 06:16:00,
2013-06-16 02:21:00,51.4,50.0,29.94,NW,307,0.0,0.0,95,0.00,,,0.00,0.0,WUHU216DAVISWMX,2013-06-16 06:21:00,
2013-06-16 02:26:00,51.2,49.5,29.94,NW,307,0.0,0.0,94,0.00,,,0.00,0.0,WUHU216DAVISWMX,2013-06-16 06:26:00,
2013-06-16 02:31:00,51.1,49.4,29.94,NW,307,0.0,0.0,94,0.00,,,0.00,0.0,WUHU216DAVISWMX,2013-06-16 06:31:00,
2013-06-16 02:36:00,51.1,49.1,29.94,NW,307,0.0,0.0,93,0.00,,,0.00,0.0,WUHU216DAVISWMX,2013-06-16 06:36:00,
2013-06-16 02:41:00,50.9,49.2,29.94,NW,307,0.0,0.0,94,0.00,,,0.00,0.0,WUHU216DAVISWMX,2013-06-16 06:41:00,
2013-06-16 02:46:00,50.8,49.7,29.94,NW,307,0.0,0.0,96,0.00,,,0.00,0.0,WUHU216DAVISWMX,2013-06-16 06:46:00,
2013-06-16 02:51:00,50.7,50.4,29.94,NW,307,0.0,0.0,99,0.00,,,0.00,0.0,WUHU216DAVISWMX,2013-06-16 06:51:00,
2013-06-16 02:56:00,50.7,50.4,29.94,NW,307,0.0,0.0,99,0.00,,,0.00,0.0,WUHU216DAVISWMX,2013-06-16 06:56:00,
2013-06-16 03:01:00,50.6,50.0,29.94,NW,307,0.0,0.0,98,0.00,,,0.00,0.0,WUHU216DAVISWMX,2013-06-16 07:01:00,
2013-06-16 03:06:00,50.5,49.9,29.94,NW,307,0.0,0.0,98,0.00,,,0.00,0.0,WUHU216DAVISWMX,2013-06-16 07:06:00,
2013-06-16 03:11:00,50.6,50.3,29.94,NW,307,0.0,0.0,99,0.00,,,0.00,0.0,WUHU216DAVISWMX,2013-06-16 07:11:00,
2013-06-16 03:16:00,50.5,49.9,29.94,NW,307,0.0,0.0,98,0.00,,,0.00,0.0,WUHU216DAVISWMX,2013-06-16 07:16:00,
2013-06-16 03:21:00,50.4,49.8,29.94,NW,307,0.0,0.0,98,0.00,,,0.00,0.0,WUHU216DAVISWMX,2013-06-16 07:21:00,
2013-06-16 03:26:00,50.5,49.7,29.94,NW,307,0.0,0.0,97,0.00,,,0.00,0.0,WUHU216DAVISWMX,2013-06-16 07:26:00,
2013-06-16 03:31:00,50.4,49.6,29.94,NW,307,0.0,0.0,97,0.00,,,0.00,0.0,WUHU216DAVISWMX,2013-06-16 07:31:00,
2013-06-16 03:36:00,50.3,49.2,29.94,NW,307,0.0,0.0,96,0.00,,,0.00,0.0,WUHU216DAVISWMX,2013-06-16 07:36:00,
2013-06-16 03:41:00,50.2,49.1,29.94,NW,307,0.0,0.0,96,0.00,,,0.00,0.0,WUHU216DAVISWMX,2013-06-16 07:41:00,
2013-06-16 03:46:00,50.0,48.9,29.94,NW,307,0.0,0.0,96,0.00,,,0.00,0.0,WUHU216DAVISWMX,2013-06-16 07:46:00,
2013-06-16 03:51:00,50.0,48.6,29.94,NW,307,0.0,0.0,95,0.00,,,0.00,0.0,WUHU216DAVISWMX,2013-06-16 07:51:00,
2013-06-16 03:56:00,49.9,48.5,29.94,NW,307,0.0,1.0,95,0.00,,,0.00,0.0,WUHU216DAVISWMX,2013-06-16 07:56:00,
2013-06-16 04:01:00,49.8,48.4,29.93,NW,307,0.0,1.0,95,0.00,,,0.00,0.0,WUHU216DAVISWMX,2013-06-16 08:01:00,
2013-06-16 04:06:00,49.8,48.4,29.93,NW,307,0.0,0.0,95,0.00,,,0.00,0.0,WUHU216DAVISWMX,2013-06-16 08:06:00,
2013-06-16 04:11:00,49.9,48.5,29.93,NW,307,0.0,0.0,95,0.00,,,0.00,0.0,WUHU216DAVISWMX,2013-06-16 08:11:00,
2013-06-16 04:16:00,50.0,48.6,29.93,NW,307,0.0,0.0,95,0.00,,,0.00,0.0,WUHU216DAVISWMX,2013-06-16 08:16:00,
2013-06-16 04:21:00,50.1,48.7,29.93,NW,307,0.0,0.0,95,0.00,,,0.00,0.0,WUHU216DAVISWMX,2013-06-16 08:21:00,
2013-06-16 04:26:00,50.1,48.7,29.94,NW,307,0.0,0.0,95,0.00,,,0.00,0.0,WUHU216DAVISWMX,2013-06-16 08:26:00,
2013-06-16 04:31:00,50.2,48.8,29.94,NW,307,0.0,0.0,95,0.00,,,0.00,0.0,WUHU216DAVISWMX,2013-06-16 08:31:00,
2013-06-16 04:36:00,50.4,49.0,29.93,NW,307,0.0,0.0,95,0.00,,,0.00,0.0,WUHU216DAVISWMX,2013-06-16 08:36:00,
2013-06-16 04:41:00,50.5,49.1,29.93,NW,307,0.0,0.0,95,0.00,,,0.00,0.0,WUHU216DAVISWMX,2013-06-16 08:41:00,
2013-06-16 04:46:00,50.4,49.0,29.93,NW,307,0.0,0.0,95,0.00,,,0.00,0.0,WUHU216DAVISWMX,2013-06-16 08:46:00,
2013-06-16 04:51:00,50.4,49.0,29.93,NW,307,0.0,0.0,95,0.00,,,0.00,0.0,WUHU216DAVISWMX,2013-06-16 08:51:00,
2013-06-16 04:56:00,50.3,48.9,29.93,NW,307,0.0,0.0,95,0.00,,,0.00,0.0,WUHU216DAVISWMX,2013-06-16 08:56:00,
2013-06-16 05:01:00,50.1,48.7,29.93,NW,307,0.0,0.0,95,0.00,,,0.00,0.0,WUHU216DAVISWMX,2013-06-16 09:01:00,
2013-06-16 05:06:00,50.0,48.6,29.93,NW,307,0.0,0.0,95,0.00,,,0.00,0.0,WUHU216DAVISWMX,2013-06-16 09:06:00,
2013-06-16 05:11:00,49.9,48.5,29.93,NW,307,0.0,0.0,95,0.00,,,0.00,0.0,WUHU216DAVISWMX,2013-06-16 09:11:00,
2013-06-16 05:16:00,49.8,48.4,29.94,NW,307,0.0,0.0,95,0.00,,,0.00,0.0,WUHU216DAVISWMX,2013-06-16 09:16:00,
2013-06-16 05:21:00,49.6,47.9,29.94,NW,307,0.0,0.0,94,0.00,,,0.00,0.0,WUHU216DAVISWMX,2013-06-16 09:21:00,
2013-06-16 05:26:00,49.7,48.3,29.94,NW,307,0.0,0.0,95,0.00,,,0.00,0.0,WUHU216DAVISWMX,2013-06-16 09:26:00,
2013-06-16 05:31:00,49.9,48.5,29.94,NW,307,0.0,0.0,95,0.00,,,0.00,0.0,WUHU216DAVISWMX,2013-06-16 09:31:00,
2013-06-16 05:36:00,50.0,48.6,29.94,NW,307,0.0,0.0,95,0.00,,,0.00,0.0,WUHU216DAVISWMX,2013-06-16 09:36:00,
2013-06-16 05:41:00,50.3,48.9,29.94,NW,307,0.0,0.0,95,0.00,,,0.00,0.0,WUHU216DAVISWMX,2013-06-16 09:41:00,
2013-06-16 05:46:00,50.5,49.4,29.94,NW,307,0.0,0.0,96,0.00,,,0.00,0.0,WUHU216DAVISWMX,2013-06-16 09:46:00,
2013-06-16 05:51:00,50.7,49.6,29.95,NW,307,0.0,0.0,96,0.00,,,0.00,0.0,WUHU216DAVISWMX,2013-06-16 09:51:00,
2013-06-16 05:56:00,51.0,49.9,29.95,NW,307,0.0,0.0,96,0.00,,,0.00,0.0,WUHU216DAVISWMX,2013-06-16 09:56:00,
2013-06-16 06:01:00,51.2,50.1,29.94,NW,307,0.0,0.0,96,0.00,,,0.00,0.0,WUHU216DAVISWMX,2013-06-16 10:01:00,
2013-06-16 06:06:00,51.4,50.3,29.94,NW,307,0.0,0.0,96,0.00,,,0.00,0.0,WUHU216DAVISWMX,2013-06-16 10:06:00,
2013-06-16 06:11:00,51.5,50.4,29.94,NW,307,0.0,0.0,96,0.00,,,0.00,0.0,WUHU216DAVISWMX,2013-06-16 10:11:00,
2013-06-16 06:16:00,51.8,50.4,29.94,NW,307,0.0,0.0,95,0.00,,,0.00,0.0,WUHU216DAVISWMX,2013-06-16 10:16:00,
2013-06-16 06:21:00,52.0,50.6,29.94,NW,307,0.0,0.0,95,0.00,,,0.00,0.0,WUHU216DAVISWMX,2013-06-16 10:21:00,
2013-06-16 06:26:00,52.3,50.9,29.94,NW,307,0.0,0.0,95,0.00,,,0.00,0.0,WUHU216DAVISWMX,2013-06-16 10:26:00,
2013-06-16 06:31:00,52.6,51.2,29.94,NW,307,0.0,0.0,95,0.00,,,0.00,0.0,WUHU216DAVISWMX,2013-06-16 10:31:00,
2013-06-16 06:36:00,52.9,51.5,29.94,NW,307,0.0,0.0,95,0.00,,,0.00,0.0,WUHU216DAVISWMX,2013-06-16 10:36:00,
2013-06-16 06:41:00,53.2,51.8,29.94,NW,307,0.0,0.0,95,0.00,,,0.00,0.0,WUHU216DAVISWMX,2013-06-16 10:41:00,
2013-06-16 06:46:00,53.5,52.4,29.95,NW,307,0.0,0.0,96,0.00,,,0.00,0.0,WUHU216DAVISWMX,2013-06-16 10:46:00,
2013-06-16 06:51:00,53.6,52.2,29.94,NW,307,0.0,0.0,95,0.00,,,0.00,0.0,WUHU216DAVISWMX,2013-06-16 10:51:00,
2013-06-16 06:56:00,53.8,52.4,29.95,NW,307,0.0,0.0,95,0.00,,,0.00,0.0,WUHU216DAVISWMX,2013-06-16 10:56:00,
2013-06-16 07:01:00,54.2,52.8,29.94,NW,307,0.0,0.0,95,0.00,,,0.00,0.0,WUHU216DAVISWMX,2013-06-16 11:01:00,
2013-06-16 07:06:00,54.6,53.2,29.95,NW,307,0.0,0.0,95,0.00,,,0.00,0.0,WUHU216DAVISWMX,2013-06-16 11:06:00,
2013-06-16 07:11:00,55.4,54.0,29.95,NW,307,0.0,0.0,95,0.00,,,0.00,0.0,WUHU216DAVISWMX,2013-06-16 11:11:00,
2013-06-16 07:16:00,55.7,54.3,29.94,NW,307,0.0,0.0,95,0.00,,,0.00,0.0,WUHU216DAVISWMX,2013-06-16 11:16:00,
2013-06-16 07:21:00,56.1,54.4,29.94,NW,307,0.0,0.0,94,0.00,,,0.00,0.0,WUHU216DAVISWMX,2013-06-16 11:21:00,
2013-06-16 07:26:00,56.8,54.8,29.94,NW,307,0.0,0.0,93,0.00,,,0.00,0.0,WUHU216DAVISWMX,2013-06-16 11:26:00,
2013-06-16 07:31:00,57.3,54.7,29.94,NW,307,0.0,0.0,91,0.00,,,0.00,0.0,WUHU216DAVISWMX,2013-06-16 11:31:00,
2013-06-16 07:36:00,57.9,54.7,29.95,NW,307,0.0,0.0,89,0.00,,,0.00,0.0,WUHU216DAVISWMX,2013-06-16 11:36:00,
2013-06-16 07:41:00,58.5,54.9,29.95,NW,307,0.0,0.0,88,0.00,,,0.00,0.0,WUHU216DAVISWMX,2013-06-16 11:41:00,
2013-06-16 07:46:00,59.0,55.4,29.95,NW,307,0.0,1.0,88,0.00,,,0.00,0.0,WUHU216DAVISWMX,2013-06-16 11:46:00,
2013-06-16 07:51:00,59.5,55.9,29.95,NW,307,0.0,1.0,88,0.00,,,0.00,0.0,WUHU216DAVISWMX,2013-06-16 11:51:00,
2013-06-16 07:56:00,59.6,55.4,29.95,NW,307,0.0,1.0,86,0.00,,,0.00,0.0,WUHU216DAVISWMX,2013-06-16 11:56:00,
2013-06-16 08:01:00,60.0,55.2,29.95,NW,307,0.0,0.0,84,0.00,,,0.00,0.0,WUHU216DAVISWMX,2013-06-16 12:01:00,
2013-06-16 08:06:00,60.6,55.1,29.95,NW,307,0.0,0.0,82,0.00,,,0.00,0.0,WUHU216DAVISWMX,2013-06-16 12:06:00,
2013-06-16 08:11:00,61.2,55.4,29.94,NW,307,0.0,1.0,81,0.00,,,0.00,0.0,WUHU216DAVISWMX,2013-06-16 12:11:00,
2013-06-16 08:16:00,61.7,56.2,29.94,NW,307,0.0,1.0,82,0.00,,,0.00,0.0,WUHU216DAVISWMX,2013-06-16 12:16:00,
2013-06-16 08:21:00,62.0,55.5,29.94,NW,307,0.0,0.0,79,0.00,,,0.00,0.0,WUHU216DAVISWMX,2013-06-16 12:21:00,
2013-06-16 08:26:00,62.5,57.0,29.94,NW,307,0.0,0.0,82,0.00,,,0.00,0.0,WUHU216DAVISWMX,2013-06-16 12:26:00,
2013-06-16 08:31:00,63.1,57.9,29.94,NW,307,0.0,0.0,83,0.00,,,0.00,0.0,WUHU216DAVISWMX,2013-06-16 12:31:00,
2013-06-16 08:36:00,63.8,57.6,29.94,NW,307,0.0,0.0,80,0.00,,,0.00,0.0,WUHU216DAVISWMX,2013-06-16 12:36:00,
2013-06-16 08:41:00,64.3,56.7,29.94,NW,307,0.0,0.0,76,0.00,,,0.00,0.0,WUHU216DAVISWMX,2013-06-16 12:41:00,
2013-06-16 08:46:00,64.9,56.2,29.94,NW,307,0.0,0.0,73,0.00,,,0.00,0.0,WUHU216DAVISWMX,2013-06-16 12:46:00,
2013-06-16 08:51:00,65.7,55.0,29.94,NW,306,1.0,2.0,68,0.00,,,0.00,0.0,WUHU216DAVISWMX,2013-06-16 12:51:00,
2013-06-16 08:56:00,66.9,54.9,29.93,NW,317,0.0,6.0,65,0.00,,,0.00,0.0,WUHU216DAVISWMX,2013-06-16 12:56:00,
2013-06-16 09:01:00,68.0,54.2,29.93,West,266,2.0,6.0,61,0.00,,,0.00,0.0,WUHU216DAVISWMX,2013-06-16 13:01:00,
2013-06-16 09:06:00,69.1,54.8,29.93,West,265,0.0,3.0,60,0.00,,,0.00,0.0,WUHU216DAVISWMX,2013-06-16 13:06:00,
2013-06-16 09:11:00,70.0,55.2,29.93,West,264,0.0,2.0,59,0.00,,,0.00,0.0,WUHU216DAVISWMX,2013-06-16 13:11:00,
2013-06-16 09:16:00,70.3,55.9,29.93,West,265,0.0,1.0,60,0.00,,,0.00,0.0,WUHU216DAVISWMX,2013-06-16 13:16:00,
2013-06-16 09:21:00,70.4,55.1,29.93,West,265,0.0,1.0,58,0.00,,,0.00,0.0,WUHU216DAVISWMX,2013-06-16 13:21:00,
2013-06-16 09:26:00,70.4,55.1,29.93,West,265,0.0,1.0,58,0.00,,,0.00,0.0,WUHU216DAVISWMX,2013-06-16 13:26:00,
2013-06-16 09:31:00,70.5,55.2,29.93,WSW,249,0.0,3.0,58,0.00,,,0.00,0.0,WUHU216DAVISWMX,2013-06-16 13:31:00,
2013-06-16 09:36:00,70.8,55.5,29.92,WSW,249,0.0,3.0,58,0.00,,,0.00,0.0,WUHU216DAVISWMX,2013-06-16 13:36:00,
2013-06-16 09:41:00,71.1,55.3,29.92,WSW,249,1.0,2.0,57,0.00,,,0.00,0.0,WUHU216DAVISWMX,2013-06-16 13:41:00,
2013-06-16 09:46:00,71.4,55.5,29.91,SSW,213,0.0,4.0,57,0.00,,,0.00,0.0,WUHU216DAVISWMX,2013-06-16 13:46:00,
2013-06-16 09:51:00,71.5,54.6,29.92,SW,218,1.0,4.0,55,0.00,,,0.00,0.0,WUHU216DAVISWMX,2013-06-16 13:51:00,
2013-06-16 09:56:00,71.9,54.5,29.91,SSW,208,0.0,2.0,54,0.00,,,0.00,0.0,WUHU216DAVISWMX,2013-06-16 13:56:00,
2013-06-16 10:01:00,72.2,53.2,29.91,NW,305,3.0,7.0,51,0.00,,,0.00,0.0,WUHU216DAVISWMX,2013-06-16 14:01:00,
2013-06-16 10:06:00,71.8,54.4,29.91,NW,305,2.0,7.0,54,0.00,,,0.00,0.0,WUHU216DAVISWMX,2013-06-16 14:06:00,
2013-06-16 10:11:00,72.3,55.4,29.91,SW,222,1.0,3.0,55,0.00,,,0.00,0.0,WUHU216DAVISWMX,2013-06-16 14:11:00,
2013-06-16 10:16:00,73.0,55.5,29.91,SSW,207,4.0,4.0,54,0.00,,,0.00,0.0,WUHU216DAVISWMX,2013-06-16 14:16:00,
2013-06-16 10:21:00,73.6,56.1,29.91,SSW,201,0.0,4.0,54,0.00,,,0.00,0.0,WUHU216DAVISWMX,2013-06-16 14:21:00,
2013-06-16 10:26:00,74.5,55.8,29.91,SSW,201,2.0,4.0,52,0.00,,,0.00,0.0,WUHU216DAVISWMX,2013-06-16 14:26:00,
2013-06-16 10:31:00,75.2,55.4,29.90,South,183,5.0,6.0,50,0.00,,,0.00,0.0,WUHU216DAVISWMX,2013-06-16 14:31:00,
2013-06-16 10:36:00,76.2,55.1,29.90,SSE,162,3.0,9.0,48,0.00,,,0.00,0.0,WUHU216DAVISWMX,2013-06-16 14:36:00,
2013-06-16 10:41:00,76.9,54.6,29.90,SSE,152,4.0,9.0,46,0.00,,,0.00,0.0,WUHU216DAVISWMX,2013-06-16 14:41:00,
2013-06-16 10:46:00,77.5,55.7,29.90,South,170,3.0,6.0,47,0.00,,,0.00,0.0,WUHU216DAVISWMX,2013-06-16 14:46:00,
2013-06-16 10:51:00,78.0,55.6,29.89,SSE,168,3.0,6.0,46,0.00,,,0.00,0.0,WUHU216DAVISWMX,2013-06-16 14:51:00,
2013-06-16 10:56:00,78.0,56.2,29.89,SE,145,4.0,7.0,47,0.00,,,0.00,0.0,WUHU216DAVISWMX,2013-06-16 14:56:00,
2013-06-16 11:01:00,77.7,52.7,29.89,SSE,157,3.0,7.0,42,0.00,,,0.00,0.0,WUHU216DAVISWMX,2013-06-16 15:01:00,
2013-06-16 11:06:00,77.3,54.9,29.89,South,172,3.0,8.0,46,0.00,,,0.00,0.0,WUHU216DAVISWMX,2013-06-16 15:06:00,
2013-06-16 11:11:00,76.8,53.9,29.89,SSE,167,1.0,8.0,45,0.00,,,0.00,0.0,WUHU216DAVISWMX,2013-06-16 15:11:00,
2013-06-16 11:16:00,76.3,54.0,29.89,SSE,168,4.0,7.0,46,0.00,,,0.00,0.0,WUHU216DAVISWMX,2013-06-16 15:16:00,
2013-06-16 11:21:00,76.1,53.8,29.89,SSE,155,1.0,8.0,46,0.00,,,0.00,0.0,WUHU216DAVISWMX,2013-06-16 15:21:00,
2013-06-16 11:26:00,75.9,54.3,29.88,ESE,113,2.0,8.0,47,0.00,,,0.00,0.0,WUHU216DAVISWMX,2013-06-16 15:26:00,
2013-06-16 11:31:00,75.7,54.1,29.88,South,172,2.0,7.0,47,0.00,,,0.00,0.0,WUHU216DAVISWMX,2013-06-16 15:31:00,
2013-06-16 11:36:00,76.0,54.3,29.88,SSE,165,3.0,6.0,47,0.00,,,0.00,0.0,WUHU216DAVISWMX,2013-06-16 15:36:00,
2013-06-16 11:41:00,77.0,55.3,29.88,SSW,195,3.0,4.0,47,0.00,,,0.00,0.0,WUHU216DAVISWMX,2013-06-16 15:41:00,
2013-06-16 11:46:00,77.7,55.9,29.88,South,181,0.0,7.0,47,0.00,,,0.00,0.0,WUHU216DAVISWMX,2013-06-16 15:46:00,
2013-06-16 11:51:00,77.3,54.3,29.88,SE,139,0.0,8.0,45,0.00,,,0.00,0.0,WUHU216DAVISWMX,2013-06-16 15:51:00,
2013-06-16 11:56:00,76.8,55.1,29.88,East,101,1.0,8.0,47,0.00,,,0.00,0.0,WUHU216DAVISWMX,2013-06-16 15:56:00,
2013-06-16 12:01:00,76.5,54.8,29.88,SSE,165,2.0,5.0,47,0.00,,,0.00,0.0,WUHU216DAVISWMX,2013-06-16 16:01:00,
2013-06-16 12:06:00,76.3,54.6,29.88,SSE,162,3.0,5.0,47,0.00,,,0.00,0.0,WUHU216DAVISWMX,2013-06-16 16:06:00,
2013-06-16 12:11:00,76.2,56.9,29.87,SSE,159,0.0,4.0,51,0.00,,,0.00,0.0,WUHU216DAVISWMX,2013-06-16 16:11:00,
2013-06-16 12:16:00,76.5,56.0,29.87,SSE,159,0.0,7.0,49,0.00,,,0.00,0.0,WUHU216DAVISWMX,2013-06-16 16:16:00,
2013-06-16 12:21:00,76.9,55.2,29.87,SSE,157,8.0,8.0,47,0.00,,,0.00,0.0,WUHU216DAVISWMX,2013-06-16 16:21:00,
2013-06-16 12:26:00,76.9,55.8,29.87,SE,136,1.0,10.0,48,0.00,,,0.00,0.0,WUHU216DAVISWMX,2013-06-16 16:26:00,
2013-06-16 12:31:00,76.5,54.8,29.87,SSW,201,1.0,10.0,47,0.00,,,0.00,0.0,WUHU216DAVISWMX,2013-06-16 16:31:00,
2013-06-16 12:36:00,76.2,55.7,29.86,SE,133,1.0,9.0,49,0.00,,,0.00,0.0,WUHU216DAVISWMX,2013-06-16 16:36:00,
2013-06-16 12:41:00,75.8,55.9,29.86,SE,135,1.0,9.0,50,0.00,,,0.00,0.0,WUHU216DAVISWMX,2013-06-16 16:41:00,
2013-06-16 12:46:00,75.7,55.3,29.86,South,183,1.0,6.0,49,0.00,,,0.00,0.0,WUHU216DAVISWMX,2013-06-16 16:46:00,
2013-06-16 12:51:00,75.4,56.1,29.86,SSE,167,3.0,8.0,51,0.00,,,0.00,0.0,WUHU216DAVISWMX,2013-06-16 16:51:00,
2013-06-16 12:56:00,75.3,55.5,29.86,South,181,4.0,8.0,50,0.00,,,0.00,0.0,WUHU216DAVISWMX,2013-06-16 16:56:00,
2013-06-16 13:01:00,75.4,56.7,29.85,SSE,159,1.0,8.0,52,0.00,,,0.00,0.0,WUHU216DAVISWMX,2013-06-16 17:01:00,
2013-06-16 13:06:00,75.4,57.2,29.85,SSE,159,1.0,8.0,53,0.00,,,0.00,0.0,WUHU216DAVISWMX,2013-06-16 17:06:00,
2013-06-16 13:11:00,75.3,56.0,29.85,SSE,150,0.0,6.0,51,0.00,,,0.00,0.0,WUHU216DAVISWMX,2013-06-16 17:11:00,
2013-06-16 13:16:00,74.9,56.7,29.85,SSE,153,0.0,6.0,53,0.00,,,0.00,0.0,WUHU216DAVISWMX,2013-06-16 17:16:00,
2013-06-16 13:21:00,74.8,56.1,29.85,SSE,153,1.0,5.0,52,0.00,,,0.00,0.0,WUHU216DAVISWMX,2013-06-16 17:21:00,
2013-06-16 13:26:00,74.7,56.6,29.85,South,175,0.0,5.0,53,0.00,,,0.00,0.0,WUHU216DAVISWMX,2013-06-16 17:26:00,
2013-06-16 13:31:00,74.5,57.4,29.84,South,175,1.0,5.0,55,0.00,,,0.00,0.0,WUHU216DAVISWMX,2013-06-16 17:31:00,
2013-06-16 13:36:00,74.5,57.9,29.84,South,175,0.0,3.0,56,0.00,,,0.00,0.0,WUHU216DAVISWMX,2013-06-16 17:36:00,
2013-06-16 13:41:00,74.4,58.4,29.84,South,175,0.0,3.0,57,0.00,,,0.00,0.0,WUHU216DAVISWMX,2013-06-16 17:41:00,
2013-06-16 13:46:00,74.4,57.3,29.84,ESE,115,3.0,6.0,55,0.00,,,0.00,0.0,WUHU216DAVISWMX,2013-06-16 17:46:00,
2013-06-16 13:51:00,74.3,57.2,29.84,South,177,2.0,7.0,55,0.00,,,0.00,0.0,WUHU216DAVISWMX,2013-06-16 17:51:00,
2013-06-16 13:56:00,74.1,57.6,29.84,South,176,1.0,7.0,56,0.00,,,0.00,0.0,WUHU216DAVISWMX,2013-06-16 17:56:00,
2013-06-16 14:01:00,74.1,58.1,29.83,South,176,0.0,5.0,57,0.00,,,0.00,0.0,WUHU216DAVISWMX,2013-06-16 18:01:00,
2013-06-16 14:06:00,73.9,57.9,29.83,South,174,0.0,5.0,57,0.00,,,0.00,0.0,WUHU216DAVISWMX,2013-06-16 18:06:00,
2013-06-16 14:11:00,73.6,57.6,29.83,South,185,3.0,8.0,57,0.00,,,0.00,0.0,WUHU216DAVISWMX,2013-06-16 18:11:00,
2013-06-16 14:16:00,73.5,58.0,29.82,South,178,1.0,8.0,58,0.00,,,0.00,0.0,WUHU216DAVISWMX,2013-06-16 18:16:00,
2013-06-16 14:21:00,73.6,57.6,29.82,SSE,166,0.0,7.0,57,0.00,,,0.00,0.0,WUHU216DAVISWMX,2013-06-16 18:21:00,
2013-06-16 14:26:00,73.4,56.9,29.82,South,169,0.0,7.0,56,0.00,,,0.00,0.0,WUHU216DAVISWMX,2013-06-16 18:26:00,
2013-06-16 14:31:00,73.4,58.9,29.82,South,169,2.0,5.0,60,0.00,,,0.00,0.0,WUHU216DAVISWMX,2013-06-16 18:31:00,
2013-06-16 14:36:00,73.4,58.4,29.81,South,169,2.0,5.0,59,0.00,,,0.00,0.0,WUHU216DAVISWMX,2013-06-16 18:36:00,
2013-06-16 14:41:00,73.6,58.6,29.81,SSE,167,3.0,5.0,59,0.00,,,0.00,0.0,WUHU216DAVISWMX,2013-06-16 18:41:00,
2013-06-16 14:46:00,73.9,58.9,29.81,South,169,3.0,5.0,59,0.00,,,0.00,0.0,WUHU216DAVISWMX,2013-06-16 18:46:00,
2013-06-16 14:51:00,74.1,59.0,29.80,SSE,167,3.0,6.0,59,0.00,,,0.00,0.0,WUHU216DAVISWMX,2013-06-16 18:51:00,
2013-06-16 14:56:00,74.3,59.7,29.80,SSE,164,3.0,6.0,60,0.00,,,0.00,0.0,WUHU216DAVISWMX,2013-06-16 18:56:00,
2013-06-16 15:01:00,74.5,59.4,29.79,South,173,3.0,6.0,59,0.00,,,0.00,0.0,WUHU216DAVISWMX,2013-06-16 19:01:00,
2013-06-16 15:06:00,74.8,59.7,29.79,SSE,153,3.0,6.0,59,0.00,,,0.00,0.0,WUHU216DAVISWMX,2013-06-16 19:06:00,
2013-06-16 15:11:00,75.1,60.0,29.79,SSE,152,4.0,6.0,59,0.00,,,0.00,0.0,WUHU216DAVISWMX,2013-06-16 19:11:00,
2013-06-16 15:16:00,75.5,60.8,29.78,South,187,0.0,8.0,60,0.00,,,0.00,0.0,WUHU216DAVISWMX,2013-06-16 19:16:00,
2013-06-16 15:21:00,75.9,60.7,29.79,SSE,150,3.0,8.0,59,0.00,,,0.00,0.0,WUHU216DAVISWMX,2013-06-16 19:21:00,
2013-06-16 15:26:00,76.3,60.1,29.78,SE,139,3.0,8.0,57,0.00,,,0.00,0.0,WUHU216DAVISWMX,2013-06-16 19:26:00,
2013-06-16 15:31:00,76.6,61.4,29.78,South,169,2.0,8.0,59,0.00,,,0.00,0.0,WUHU216DAVISWMX,2013-06-16 19:31:00,
2013-06-16 15:36:00,76.7,60.5,29.77,South,186,5.0,10.0,57,0.00,,,0.00,0.0,WUHU216DAVISWMX,2013-06-16 19:36:00,
2013-06-16 15:41:00,76.4,60.2,29.77,South,173,2.0,10.0,57,0.00,,,0.00,0.0,WUHU216DAVISWMX,2013-06-16 19:41:00,
2013-06-16 15:46:00,75.9,60.3,29.77,South,178,3.0,9.0,58,0.00,,,0.00,0.0,WUHU216DAVISWMX,2013-06-16 19:46:00,
2013-06-16 15:51:00,75.5,60.4,29.77,South,173,5.0,9.0,59,0.00,,,0.00,0.0,WUHU216DAVISWMX,2013-06-16 19:51:00,
2013-06-16 15:56:00,75.1,60.5,29.76,SSE,163,1.0,6.0,60,0.00,,,0.00,0.0,WUHU216DAVISWMX,2013-06-16 19:56:00,
2013-06-16 16:01:00,74.8,60.7,29.77,SSE,160,2.0,6.0,61,0.00,,,0.00,0.0,WUHU216DAVISWMX,2013-06-16 20:01:00,
2013-06-16 16:06:00,74.5,60.4,29.77,SSE,166,1.0,6.0,61,0.00,,,0.00,0.0,WUHU216DAVISWMX,2013-06-16 20:06:00,
2013-06-16 16:11:00,74.3,59.7,29.77,SSE,167,1.0,7.0,60,0.00,,,0.00,0.0,WUHU216DAVISWMX,2013-06-16 20:11:00,
2013-06-16 16:16:00,74.1,60.0,29.76,SSE,160,2.0,7.0,61,0.00,,,0.00,0.0,WUHU216DAVISWMX,2013-06-16 20:16:00,
2013-06-16 16:21:00,74.1,60.0,29.77,SSE,160,0.0,6.0,61,0.00,,,0.00,0.0,WUHU216DAVISWMX,2013-06-16 20:21:00,
2013-06-16 16:26:00,73.9,59.3,29.76,SSE,165,1.0,8.0,60,0.00,,,0.00,0.0,WUHU216DAVISWMX,2013-06-16 20:26:00,
2013-06-16 16:31:00,73.7,59.6,29.76,SSE,164,2.0,8.0,61,0.00,,,0.00,0.0,WUHU216DAVISWMX,2013-06-16 20:31:00,
2013-06-16 16:36:00,73.7,59.1,29.75,SSE,165,1.0,5.0,60,0.00,,,0.00,0.0,WUHU216DAVISWMX,2013-06-16 20:36:00,
2013-06-16 16:41:00,73.6,59.1,29.76,SSE,165,2.0,5.0,60,0.00,,,0.00,0.0,WUHU216DAVISWMX,2013-06-16 20:41:00,
2013-06-16 16:46:00,73.5,59.4,29.75,SSE,165,0.0,4.0,61,0.00,,,0.00,0.0,WUHU216DAVISWMX,2013-06-16 20:46:00,
2013-06-16 16:51:00,73.4,58.9,29.75,South,177,2.0,7.0,60,0.00,,,0.00,0.0,WUHU216DAVISWMX,2013-06-16 20:51:00,
2013-06-16 16:56:00,73.2,58.7,29.75,South,173,6.0,7.0,60,0.00,,,0.00,0.0,WUHU216DAVISWMX,2013-06-16 20:56:00,
2013-06-16 17:01:00,73.0,58.5,29.75,SSE,163,2.0,7.0,60,0.00,,,0.00,0.0,WUHU216DAVISWMX,2013-06-16 21:01:00,
2013-06-16 17:06:00,72.9,57.9,29.75,SSE,163,4.0,7.0,59,0.00,,,0.00,0.0,WUHU216DAVISWMX,2013-06-16 21:06:00,
2013-06-16 17:11:00,72.7,57.7,29.75,SSE,167,0.0,6.0,59,0.00,,,0.00,0.0,WUHU216DAVISWMX,2013-06-16 21:11:00,
2013-06-16 17:16:00,72.4,57.9,29.76,South,176,1.0,6.0,60,0.00,,,0.00,0.0,WUHU216DAVISWMX,2013-06-16 21:16:00,
2013-06-16 17:21:00,72.3,58.7,29.76,South,170,1.0,7.0,62,0.00,,,0.00,0.0,WUHU216DAVISWMX,2013-06-16 21:21:00,
2013-06-16 17:26:00,71.8,59.2,29.75,South,169,0.0,7.0,64,0.00,,,0.00,0.0,WUHU216DAVISWMX,2013-06-16 21:26:00,
2013-06-16 17:31:00,70.8,59.1,29.75,South,169,1.0,3.0,66,0.00,,,0.00,0.0,WUHU216DAVISWMX,2013-06-16 21:31:00,
2013-06-16 17:36:00,69.7,58.9,29.74,South,169,0.0,2.0,68,0.00,,,0.00,0.0,WUHU216DAVISWMX,2013-06-16 21:36:00,
2013-06-16 17:41:00,69.3,59.7,29.74,South,169,0.0,2.0,71,0.00,,,0.00,0.0,WUHU216DAVISWMX,2013-06-16 21:41:00,
2013-06-16 17:46:00,69.1,59.9,29.74,South,169,0.0,1.0,72,0.00,,,0.00,0.0,WUHU216DAVISWMX,2013-06-16 21:46:00,
2013-06-16 17:51:00,69.2,60.3,29.73,South,169,0.0,1.0,73,0.00,,,0.00,0.0,WUHU216DAVISWMX,2013-06-16 21:51:00,
2013-06-16 17:56:00,69.4,60.9,29.73,South,169,1.0,1.0,74,0.00,,,0.00,0.0,WUHU216DAVISWMX,2013-06-16 21:56:00,
2013-06-16 18:01:00,69.6,59.9,29.73,South,169,0.0,2.0,71,0.00,,,0.00,0.0,WUHU216DAVISWMX,2013-06-16 22:01:00,
2013-06-16 18:06:00,69.9,60.2,29.73,South,169,0.0,2.0,71,0.00,,,0.00,0.0,WUHU216DAVISWMX,2013-06-16 22:06:00,
2013-06-16 18:11:00,70.2,60.1,29.73,South,169,0.0,1.0,70,0.00,,,0.00,0.0,WUHU216DAVISWMX,2013-06-16 22:11:00,
2013-06-16 18:16:00,70.4,60.7,29.73,South,169,0.0,2.0,71,0.00,,,0.00,0.0,WUHU216DAVISWMX,2013-06-16 22:16:00,
2013-06-16 18:21:00,70.4,60.3,29.73,South,169,0.0,2.0,70,0.00,,,0.00,0.0,WUHU216DAVISWMX,2013-06-16 22:21:00,
2013-06-16 18:26:00,70.4,59.9,29.73,South,169,1.0,2.0,69,0.00,,,0.00,0.0,WUHU216DAVISWMX,2013-06-16 22:26:00,
2013-06-16 18:31:00,70.2,60.1,29.73,South,169,0.0,1.0,70,0.00,,,0.00,0.0,WUHU216DAVISWMX,2013-06-16 22:31:00,
2013-06-16 18:36:00,70.1,60.0,29.73,SSE,168,0.0,2.0,70,0.00,,,0.00,0.0,WUHU216DAVISWMX,2013-06-16 22:36:00,
2013-06-16 18:41:00,70.2,59.7,29.72,SSE,168,0.0,2.0,69,0.00,,,0.00,0.0,WUHU216DAVISWMX,2013-06-16 22:41:00,
2013-06-16 18:46:00,70.2,59.7,29.73,SSE,168,0.0,2.0,69,0.00,,,0.00,0.0,WUHU216DAVISWMX,2013-06-16 22:46:00,
2013-06-16 18:51:00,70.3,60.2,29.72,SSE,168,0.0,2.0,70,0.00,,,0.00,0.0,WUHU216DAVISWMX,2013-06-16 22:51:00,
2013-06-16 18:56:00,70.4,59.9,29.72,SSE,168,0.0,2.0,69,0.00,,,0.00,0.0,WUHU216DAVISWMX,2013-06-16 22:56:00,
2013-06-16 19:01:00,70.4,60.3,29.72,SSE,168,0.0,2.0,70,0.00,,,0.00,0.0,WUHU216DAVISWMX,2013-06-16 23:01:00,
2013-06-16 19:06:00,70.3,60.2,29.72,SSE,168,0.0,2.0,70,0.00,,,0.00,0.0,WUHU216DAVISWMX,2013-06-16 23:06:00,
2013-06-16 19:10:00,70.3,59.8,29.71,SSE,168,1.0,2.0,69,0.00,,,0.00,0.0,WUHU216DAVISWMX,2013-06-16 23:10:00,
2013-06-16 19:15:00,70.3,59.8,29.71,SSE,168,0.0,2.0,69,0.00,,,0.00,0.0,WUHU216DAVISWMX,2013-06-16 23:15:00,
2013-06-16 19:20:00,70.5,60.4,29.72,SSE,168,0.0,2.0,70,0.00,,,0.00,0.0,WUHU216DAVISWMX,2013-06-16 23:20:00,
2013-06-16 19:25:00,70.4,59.9,29.72,SSE,166,1.0,6.0,69,0.00,,,0.00,0.0,WUHU216DAVISWMX,2013-06-16 23:25:00,
2013-06-16 19:30:00,70.4,59.5,29.72,SSE,166,0.0,6.0,68,0.00,,,0.00,0.0,WUHU216DAVISWMX,2013-06-16 23:30:00,
2013-06-16 19:35:00,70.5,60.0,29.72,SSE,166,2.0,2.0,69,0.00,,,0.00,0.0,WUHU216DAVISWMX,2013-06-16 23:35:00,
2013-06-16 19:40:00,70.6,59.7,29.72,SSE,166,0.0,3.0,68,0.00,,,0.00,0.0,WUHU216DAVISWMX,2013-06-16 23:40:00,
2013-06-16 19:45:00,70.6,60.1,29.72,SSE,166,0.0,3.0,69,0.00,,,0.00,0.0,WUHU216DAVISWMX,2013-06-16 23:45:00,
2013-06-16 19:50:00,70.6,59.7,29.72,SSE,166,2.0,3.0,68,0.00,,,0.00,0.0,WUHU216DAVISWMX,2013-06-16 23:50:00,
2013-06-16 19:55:00,70.5,59.6,29.72,SSE,166,0.0,3.0,68,0.00,,,0.00,0.0,WUHU216DAVISWMX,2013-06-16 23:55:00,
2013-06-16 20:00:00,70.4,59.5,29.72,SSE,167,0.0,3.0,68,0.00,,,0.00,0.0,WUHU216DAVISWMX,2013-06-17 00:00:00,
2013-06-16 20:05:00,70.2,59.3,29.72,SSE,167,0.0,3.0,68,0.00,,,0.00,0.0,WUHU216DAVISWMX,2013-06-17 00:05:00,
2013-06-16 20:10:00,70.0,59.1,29.72,SSE,167,0.0,3.0,68,0.00,,,0.00,0.0,WUHU216DAVISWMX,2013-06-17 00:10:00,
2013-06-16 20:15:00,69.9,59.4,29.72,SSE,167,1.0,3.0,69,0.00,,,0.00,0.0,WUHU216DAVISWMX,2013-06-17 00:15:00,
2013-06-16 20:20:00,69.8,59.4,29.72,SSE,167,0.0,3.0,69,0.00,,,0.00,0.0,WUHU216DAVISWMX,2013-06-17 00:20:00,
2013-06-16 20:25:00,69.6,59.2,29.73,SSE,167,0.0,1.0,69,0.00,,,0.00,0.0,WUHU216DAVISWMX,2013-06-17 00:25:00,
2013-06-16 20:30:00,69.4,59.4,29.72,SSE,167,0.0,0.0,70,0.00,,,0.00,0.0,WUHU216DAVISWMX,2013-06-17 00:30:00,
2013-06-16 20:35:00,69.2,59.6,29.73,SSE,167,0.0,1.0,71,0.00,,,0.00,0.0,WUHU216DAVISWMX,2013-06-17 00:35:00,
2013-06-16 20:40:00,69.1,59.5,29.73,SSE,167,0.0,1.0,71,0.00,,,0.00,0.0,WUHU216DAVISWMX,2013-06-17 00:40:00,
2013-06-16 20:45:00,68.9,59.7,29.73,SSE,167,0.0,0.0,72,0.00,,,0.00,0.0,WUHU216DAVISWMX,2013-06-17 00:45:00,
2013-06-16 20:50:00,68.6,59.4,29.73,SSE,167,0.0,1.0,72,0.00,,,0.00,0.0,WUHU216DAVISWMX,2013-06-17 00:50:00,
2013-06-16 20:55:00,68.2,59.7,29.73,SSE,167,0.0,1.0,74,0.00,,,0.00,0.0,WUHU216DAVISWMX,2013-06-17 00:55:00,
2013-06-16 21:00:00,68.0,59.9,29.74,SSE,167,0.0,0.0,75,0.00,,,0.00,0.0,WUHU216DAVISWMX,2013-06-17 01:00:00,
2013-06-16 21:05:00,67.7,59.6,29.74,SSE,167,0.0,0.0,75,0.00,,,0.00,0.0,WUHU216DAVISWMX,2013-06-17 01:05:00,
2013-06-16 21:10:00,67.5,60.5,29.74,SSE,167,0.0,0.0,78,0.00,,,0.00,0.0,WUHU216DAVISWMX,2013-06-17 01:10:00,
2013-06-16 21:15:00,67.4,60.7,29.74,SSE,167,0.0,0.0,79,0.00,,,0.00,0.0,WUHU216DAVISWMX,2013-06-17 01:15:00,
2013-06-16 21:20:00,67.3,60.6,29.74,SSE,167,0.0,0.0,79,0.00,,,0.00,0.0,WUHU216DAVISWMX,2013-06-17 01:20:00,
2013-06-16 21:25:00,67.3,61.0,29.75,SSE,167,0.0,0.0,80,0.00,,,0.00,0.0,WUHU216DAVISWMX,2013-06-17 01:25:00,
2013-06-16 21:30:00,67.2,60.9,29.75,SSE,167,0.0,0.0,80,0.00,,,0.00,0.0,WUHU216DAVISWMX,2013-06-17 01:30:00,
2013-06-16 21:35:00,67.0,61.0,29.75,SSE,167,0.0,0.0,81,0.00,,,0.00,0.0,WUHU216DAVISWMX,2013-06-17 01:35:00,
2013-06-16 21:40:00,66.7,60.7,29.75,SSE,167,0.0,0.0,81,0.00,,,0.00,0.0,WUHU216DAVISWMX,2013-06-17 01:40:00,
2013-06-16 21:45:00,66.6,61.0,29.75,SSE,167,0.0,0.0,82,0.00,,,0.00,0.0,WUHU216DAVISWMX,2013-06-17 01:45:00,
2013-06-16 21:50:00,66.6,61.0,29.76,SSE,167,0.0,0.0,82,0.00,,,0.00,0.0,WUHU216DAVISWMX,2013-06-17 01:50:00,
2013-06-16 21:55:00,66.4,60.8,29.76,SSE,167,0.0,0.0,82,0.00,,,0.00,0.0,WUHU216DAVISWMX,2013-06-17 01:55:00,
2013-06-16 22:00:00,66.3,61.0,29.76,SSE,167,0.0,1.0,83,0.00,,,0.00,0.0,WUHU216DAVISWMX,2013-06-17 02:00:00,
2013-06-16 22:05:00,66.1,61.2,29.76,SSE,167,0.0,1.0,84,0.00,,,0.00,0.0,WUHU216DAVISWMX,2013-06-17 02:05:00,
2013-06-16 22:10:00,65.9,62.2,29.76,South,173,1.0,4.0,88,0.00,,,0.00,0.0,WUHU216DAVISWMX,2013-06-17 02:10:00,
2013-06-16 22:15:00,65.6,61.9,29.77,South,173,0.0,4.0,88,0.00,,,0.00,0.0,WUHU216DAVISWMX,2013-06-17 02:15:00,
2013-06-16 22:20:00,65.3,62.0,29.76,South,173,0.0,2.0,89,0.00,,,0.00,0.0,WUHU216DAVISWMX,2013-06-17 02:20:00,
2013-06-16 22:25:00,65.3,62.6,29.76,NW,326,0.0,6.0,91,0.00,,,0.00,0.0,WUHU216DAVISWMX,2013-06-17 02:25:00,
2013-06-16 22:30:00,65.6,62.9,29.76,NW,321,0.0,6.0,91,0.00,,,0.00,0.0,WUHU216DAVISWMX,2013-06-17 02:30:00,
2013-06-16 22:35:00,66.0,63.0,29.77,NW,313,0.0,6.0,90,0.00,,,0.00,0.0,WUHU216DAVISWMX,2013-06-17 02:35:00,
2013-06-16 22:40:00,66.5,62.8,29.76,NW,313,0.0,4.0,88,0.00,,,0.00,0.0,WUHU216DAVISWMX,2013-06-17 02:40:00,
2013-06-16 22:45:00,66.8,62.8,29.76,NW,312,0.0,4.0,87,0.00,,,0.00,0.0,WUHU216DAVISWMX,2013-06-17 02:45:00,
2013-06-16 22:50:00,66.8,62.8,29.76,NW,312,2.0,3.0,87,0.00,,,0.00,0.0,WUHU216DAVISWMX,2013-06-17 02:50:00,
2013-06-16 22:55:00,66.8,62.8,29.76,NW,305,0.0,4.0,87,0.00,,,0.00,0.0,WUHU216DAVISWMX,2013-06-17 02:55:00,
2013-06-16 23:00:00,66.8,62.8,29.76,NW,307,0.0,4.0,87,0.00,,,0.00,0.0,WUHU216DAVISWMX,2013-06-17 03:00:00,
2013-06-16 23:05:00,66.8,62.8,29.76,WNW,299,1.0,4.0,87,0.00,,,0.00,0.0,WUHU216DAVISWMX,2013-06-17 03:05:00,
2013-06-16 23:10:00,66.9,62.9,29.76,NW,304,3.0,7.0,87,0.00,,,0.00,0.0,WUHU216DAVISWMX,2013-06-17 03:10:00,
2013-06-16 23:15:00,67.1,63.1,29.77,WNW,302,0.0,7.0,87,0.00,,,0.00,0.0,WUHU216DAVISWMX,2013-06-17 03:15:00,
2013-06-16 23:20:00,67.2,62.9,29.77,WNW,302,0.0,4.0,86,0.00,,,0.00,0.0,WUHU216DAVISWMX,2013-06-17 03:20:00,
2013-06-16 23:25:00,67.2,62.9,29.77,NW,306,1.0,4.0,86,0.00,,,0.00,0.0,WUHU216DAVISWMX,2013-06-17 03:25:00,
2013-06-16 23:30:00,67.1,62.8,29.77,NNW,330,1.0,5.0,86,0.00,,,0.00,0.0,WUHU216DAVISWMX,2013-06-17 03:30:00,
2013-06-16 23:35:00,67.2,62.9,29.78,NW,317,0.0,5.0,86,0.00,,,0.00,0.0,WUHU216DAVISWMX,2013-06-17 03:35:00,
2013-06-16 23:40:00,67.1,62.8,29.78,WNW,287,3.0,5.0,86,0.00,,,0.00,0.0,WUHU216DAVISWMX,2013-06-17 03:40:00,
2013-06-16 23:45:00,67.1,63.1,29.78,WNW,302,0.0,6.0,87,0.00,,,0.00,0.0,WUHU216DAVISWMX,2013-06-17 03:45:00,
2013-06-16 23:50:00,67.0,62.7,29.78,NW,316,3.0,6.0,86,0.00,,,0.00,0.0,WUHU216DAVISWMX,2013-06-17 03:50:00,
2013-06-16 23:55:00,67.1,62.8,29.78,NW,316,1.0,5.0,86,0.00,,,0.00,0.0,WUHU216DAVISWMX,2013-06-17 03:55:00,